STARLINK-35922, 66502

Orbit data source: Space-Track

STARLINK-35922, 66502 is a payload satellite owned by SpaceX/Seattle (US) in LEO that was launched on Sat, 15 Nov 2025 UTC via an FALCON 9 launch vehicle from the Air Force Eastern Test Range (AFETR). Payload-class satellites include a variety of spacecraft equipped with specific instruments for various scientific and technological missions. These include communications satellites like Starlink; space stations such as the ISS; scientific satellites like the Hubble; Earth observation satellites from companies like Planet Labs, Umbra, and HawkEye 360; GPS; miniature CubeSats for education and research; and military/defense satellites.

Loading next visibility...
Identifier
66502, 2025-263T
Orbit
LEO
Country
Flag of USUS
Related business
Manufacturer
SpaceX/Seattle
Mission
Operational Commercial Communications
Bus & Motor
STARLINK V2MO, Unknown motor
Mass
575 kg wet, ~530 kg dry
Launch date (UTC)
2025-11-15 (7 months ago)
Launch vehicle
FALCON 9
Launch site
Air Force Eastern Test Range (AFETR)
Object type
Payload
Rocket body
Debris
Shape & HBR
Box + 2 Pan, 17.7 m
Radar Cross Section
36.964 m², Large (>1 m²)

Expand to show TLE details & history
Last TLE update: 14 hours ago

TLE from 14 hours ago
0 STARLINK-35922
1 66502U 25263T   26171.26878247  .00021434  00000-0  78641-3 0  9991
2 66502  42.9980 131.6782 0000457 250.1546 109.9257 15.27568646 34583
Epoch: 2026-06-20T06:27Z
TLE epoch observation values (Epoch: 2026-06-20T06:27:02.805Z)
Latitude
0.00003°
Longitude
126.43071°
Altitude
482.965 km
Speed
7.626 km/s
True Right ascension
08h 46m 42s
True Declination
0° 00' 00"
Sunlit
Object was in daylight at epoch
Visualization orbit readout
Latitude
Unknown
Longitude
Unknown
Altitude
Unknown
Speed
Unknown
Apparent Right ascension
Unknown
Apparent Declination
Unknown
Sunlit
N/A
Visualization observer readout
Local Sidereal Time
07:17:46
Azimuth
Unknown
Elevation
Unknown
Doppler factor
Unknown
Orbital elements
Apogee altitude
485.342 km
Perigee altitude
484.715 km
Semi-major axis
6,863.166 km
Eccentricity
0.00005
Inclination
42.998°
RAAN
131.6782°
Arg. of periapsis
250.1546°
True anomaly
109.93062°
Mean anomaly
109.9257°
Eccentric anomaly
109.92816°
Mean motion
3.8173 °/min
Orbital period
94.31 mins
BSTAR
0.00078641
Loading maneuver chart data...
Computing Atmospheric mass density...
Loading historical data...
Loading historical data...
Loading historical data...
Loading historical data...
Loading historical data...
Loading historical data...
Loading historical data...

Documentation

Showing up to 5 results
|